Погода в Шаиме

Погода в Шаиме : погода сейчас, прогноз погоды и архив. Всё, что Вы хотите узнать о погоде в Шаиме!

Хотите узнать прогноз погоды в Шаиме? Тогда Вам сюда: Погода в Шаиме

Поиск расширенной информации на нашем сайте:

Другие новости

Новости СМИ2

Главная страница сайта

Новости сайта

03.07.2017

Напоминаем, что на нашем специализированном сайте Метеоцентр.Азия вы можете получить высокодетализированные автоматические прогнозы погоды по пунктам России, СНГ и мира в авиационном формате (включающие направление и скорость ветра, видимость, явления погоды, количество и форму облачности, нижнюю и верхнюю границу облачности).


Погода в Шаиме - сегодня

Время (UTC), дата Ветер
(°,м/с) 
Видим.   Явления Облачность Т
(°С)
Тd
(°С)
f(%) Тe
(°С)
Pmin
(гПа)
dP
(гПа)
Po
(мм)
O2
(г/м3)
Тmin Tmax R s Состояние
почвы
03 21.02.18 090 (В) 6000 м  слаб. снег  10/4 600 м средняя 
[Sc|As trans]
-11.5 -13.1 88 -11  1012.5  -1.4  754  318  -11.7    29  равномерный
сухой снег
100% 
09 21.02.18 310 (СЗ) 9000 м  слаб. снег  10/4 600 м средняя 
[Sc|As trans]
-9.4 -11.6 84 -11  1011  -0.7  753  315           
12 21.02.18 310 (СЗ) 10 км  слаб. снег  10/3 600 м средняя 
[Sc|As trans]
-10.6 -12.5 86 -12  1010.6  -0.4  753  317           
15 21.02.18 310 (СЗ) 6000 м  слаб. снег  10/6 600 м средняя 
[Sc|As trans]
-13.6 -15.9 83 -19  1011  0.3  753  321    -8.9     
18 21.02.18 310 (СЗ) 5000 м  слаб. снег  10/3 600 м средняя 
[Sc|As trans]
-17.2 -19.9 80 -23  1011.1  753  325           
21 21.02.18 290 (З) 6000 м  слаб. снег  10/3 600 м средняя 
[Sc|As trans]
-19.7 -22.5 78 -25  1011.5  0.3  753  329           
00 22.02.18 280 (З) 20000 м  {снег}  10/0 верхняя 
[Cs]
-21.6 -24.6 77 -26  1011.6  0.1  753  331           
03 22.02.18 260 (З) 22000 м    10/0 верхняя 
[Cs]
-23.6 -26.7 76 -27  1011.8  0.1  753  334  -23.6    0.4  31  равномерный
сухой снег
100% 
06 22.02.18 280 (З) 23000 м    10/0 верхняя 
[Ci fib]
-21.5 -25.5 70 -24  1012.2  0.5  754  331  -23.9         
09 22.02.18 270 (З) 24000 м    10/0 верхняя 
[Ci fib]
-18.7 -23.9 63 -23  1012.7  0.6  754  328           
12 22.02.18 270 (З) 24000 м    4/0 верхняя 
[Ci fib]
-18.5 -23.5 65 -21  1014  1.2  755  328           
18 22.02.18 210 (ЮЗ) 23000 м    ясно 
-25.7 -28.6 77 -26  1016  0.8  756  338           
21 22.02.18 220 (ЮЗ) 24000 м    ясно 
-28 -31.2 74 -32  1016.9  0.8  757  342           
00 23.02.18 210 (ЮЗ) 24000 м    3/0 верхняя 
[Ci fib]
-28.9 -32.3 72 -33  1017.8  0.9  758  343           
03 23.02.18 210 (ЮЗ) 25000 м    3/0 верхняя 
[Ci fib]
-30 -33.6 71 -31  1018.6  0.7  758  345  -30      31  равномерный
сухой снег
100% 
06 23.02.18 тихо ()   26000 м    3/0 верхняя 
[Ci fib]
-24.9 -28.2 74 -25  1018.6  0.2  758  338  -30.3         
09 23.02.18 270 (З) 26000 м    5/0 верхняя 
[Ci fib]
-18 -23 65 -21  1018.8  0.4  759  329           
12 23.02.18 260 (З) 27000 м    4/0 верхняя 
[Ci fib]
-18 -22.8 66 -21  1019.4  0.6  759  329           
18 23.02.18 240 (ЮЗ) 24000 м    3/0 верхняя 
[Ci fib]
-24.5 -27.5 76 -25  1019.8  0.1  759  338           
21 23.02.18 280 (З) 23000 м    ясно 
-25.8 -28.6 77 -26  1019.8  0.1  759  340           
00 24.02.18 270 (З) 24000 м    ясно 
-28.9 -32.2 73 -30  1020.3  0.4  760  344           
03 24.02.18 220 (ЮЗ) 25000 м    3/0 верхняя 
[Ci fib]
-30.8 -34.5 70 -35  1020.4  760  347  -30.9      31  равномерный
сухой снег
100% 
06 24.02.18 320 (СЗ) 26000 м    3/0 верхняя 
[Ci fib]
-27.2 -30.8 72 -28  1020.7  0.4  760  342           
09 24.02.18 300 (СЗ) 23000 м    10/0 верхняя 
[Cs]
-22.1 -26.2 69 -22  1020.5  760  335           
12 24.02.18 360 (С) 22000 м    10/0 верхняя 
[Cs]
-23.1 -27.1 70 -26  1021.5  761  337           
Время (UTC), дата Ветер
(°,м/с) 
Видим.   Явления Облачность Т
(°С)
Тd
(°С)
f(%) Тe
(°С)
Pmin
(гПа)
dP
(гПа)
Po
(мм)
O2
(г/м3)
Тmin Tmax R s Состояние
почвы

Для получения пояснительной информации подведите курсор к названию столбца.

ПОГОДА в Шаиме - архив

Всё, что Вы хотите узнать о погоде в Шаиме - удобно и подробно!

Выберите нужную дату (начиная с 1 января 2015* года) и нажмите кнопку "Найти".
Будут отображены архивные сводки погоды по пункту Шаим, начиная с указанной даты.


Отображать данные в формате CSV (для использования в таблицах Excel)


Внимание! Наш архив погоды предназначен исключительно для личного некоммерческого использования в познавательных целях. Если Вам необходимы официальные справки о состоянии погоды (для производственных, юридических, коммерческих и т.п. целей), обращайтесь в органы Росгидромета.

*Примечание: данная дата относится к архиву по метеостанциям СССР (Россия, СНГ, Балтия).
Архив по метеостанциям Зарубежной Европы и Азии (кроме Китая) хранится 10 дней, по другим регионам земного шара (Китай, Африка, Америка, Австралия, Океания) - 1 день.

Шаим - район местоположения метеостанции


Название, широта, долгота, высота метеостанции:
Шаим 60.3°ш. 64.2°д. 53 м над ур. моря [Российская Федерация]

Дополнительная информация

В oтличие oт бoльшинства пoгoдных сайтoв мы публикуем пoдрoбную метеoинфoрмацию в детальнoм прoфессиoнальнoм фoрмате.

Характеристики температуры и влажнoсти вoздуха измеряются на высoте 2 м в тени вдали oт зданий и деревьев.
Скoрoсть ветра измеряется на высoте 10 м (на урoвне рoста челoвека скoрoсть ветра ниже в 1.5-2 раза). Если метеoстанция нахoдится в гoрoде или в лесу, тo скoрoсть ветра занижена на 2-4 м/с пo сравнению с oткрытым местoм. Скoрoсть ветра над акватoриями крупных рек и oзёр, а также на вершинах хoлмoв на 2-5 м/с выше, чем в oбычных услoвиях.
Атмoсфернoе давление в разных тoчках местнoсти мoжет значительнo oтличаться oт давления на метеoстанции, в зависимoсти oт услoвий рельефа (при пoдъёме на 10 м давление пoнижается примернo на 1 мм рт.ст.).